Location: Ward Pound Ridge Reservation
(41.2500°N, 73.6000°W)
Time: 10:13:12
(UTC-04:00)

Vanguard 1 - All Passes

Search period start: 25 June 2018 00:00
Search period end: 05 July 2018 00:00
Orbit: 650 x 3833 km, 34.3° (Epoch: 24 June)

Date Brightness Start Highest point End Pass type
(mag) Time Alt. Az. Time Alt. Az. Time Alt. Az.
25 Jun - 04:45:44 10° SSW 04:52:06 28° SE 05:02:12 10° E visible
25 Jun - 07:03:02 10° WSW 07:12:32 60° SSE 07:30:08 10° E daylight
25 Jun - 09:22:49 10° W 09:35:59 65° S 09:57:47 10° ESE daylight
25 Jun - 11:44:33 10° W 12:00:48 45° SSW 12:22:07 10° SE daylight
25 Jun - 14:11:33 10° W 14:24:44 20° SW 14:38:43 10° S daylight
26 Jun - 05:05:41 10° SSW 05:12:30 36° SE 05:24:03 10° E daylight
26 Jun - 07:23:43 10° WSW 07:33:32 64° S 07:51:46 10° E daylight
26 Jun - 09:43:47 10° W 09:57:13 61° SSW 10:18:59 10° ESE daylight
26 Jun - 12:06:02 10° W 12:21:52 39° SSW 12:42:03 10° SSE daylight
26 Jun - 14:36:40 10° WSW 14:45:26 14° SW 14:54:32 10° SSW daylight
27 Jun - 03:13:09 10° SE 03:14:24 10° SE 03:15:44 10° ESE visible
27 Jun - 05:25:55 10° SW 05:33:04 44° SSE 05:45:45 10° E daylight
27 Jun - 07:44:29 10° WSW 07:54:37 65° S 08:13:20 10° ESE daylight
27 Jun - 10:04:48 10° W 10:18:27 55° SSW 10:39:57 10° SE daylight
27 Jun - 12:27:48 10° W 12:42:52 32° SW 13:01:29 10° SSE daylight
28 Jun - 03:30:36 10° S 03:34:34 17° SE 03:39:49 10° E visible
28 Jun - 05:46:21 10° SW 05:53:46 51° SSE 06:07:22 10° E daylight
28 Jun - 08:05:18 10° W 08:15:45 64° S 08:34:50 10° ESE daylight
28 Jun - 10:25:54 10° W 10:39:39 49° SSW 11:00:37 10° SE daylight
28 Jun - 12:50:05 10° W 13:03:49 25° SW 13:20:12 10° S daylight
29 Jun - 03:49:56 10° SSW 03:54:51 23° SE 04:02:04 10° E visible
29 Jun - 06:06:54 10° WSW 06:14:35 57° SSE 06:28:56 10° E daylight
29 Jun - 08:26:09 10° W 08:36:54 61° S 08:56:12 10° ESE daylight
29 Jun - 10:47:07 10° W 11:00:48 42° SSW 11:20:56 10° SE daylight
29 Jun - 13:13:18 10° WSW 13:24:44 18° SW 13:37:49 10° S daylight
30 Jun - 04:09:49 10° SSW 04:15:15 31° SSE 04:23:52 10° E visible
30 Jun - 06:27:34 10° WSW 06:35:31 60° S 06:50:29 10° E daylight
30 Jun - 08:47:04 10° W 08:58:04 57° SSW 09:17:23 10° ESE daylight
30 Jun - 11:08:34 10° W 11:21:56 35° SSW 11:40:49 10° SSE daylight
30 Jun - 13:39:00 10° WSW 13:45:40 12° SW 13:52:48 10° SSW daylight
01 Jul - 04:30:01 10° SW 04:35:48 39° SSE 04:45:28 10° E visible
01 Jul - 06:48:18 10° WSW 06:56:30 61° S 07:11:58 10° ESE daylight
01 Jul - 09:08:02 10° W 09:19:13 51° SSW 09:38:20 10° SE daylight
01 Jul - 11:30:20 10° W 11:43:02 29° SW 12:00:08 10° SSE daylight
02 Jul - 02:35:13 10° SSE 02:37:35 13° SE 02:40:21 10° ESE visible
02 Jul - 04:50:26 10° SW 04:56:28 46° SSE 05:06:58 10° E visible
02 Jul - 07:09:04 10° W 07:17:32 60° S 07:33:24 10° ESE daylight
02 Jul - 09:29:06 10° W 09:40:23 45° SSW 09:58:58 10° SE daylight
02 Jul - 11:52:41 10° W 12:04:06 22° SW 12:18:39 10° S daylight
03 Jul - 02:54:13 10° S 02:57:56 19° SE 03:02:50 10° E visible
03 Jul - 05:11:00 10° WSW 05:17:14 52° SSE 05:28:25 10° E daylight
03 Jul - 07:29:54 10° W 07:38:36 56° S 07:54:42 10° ESE daylight
03 Jul - 09:50:19 10° W 10:01:32 38° SSW 10:19:14 10° SSE daylight
03 Jul - 12:16:13 10° WSW 12:25:10 16° SW 12:35:48 10° S daylight
04 Jul - 03:14:02 10° SSW 03:18:22 26° SSE 03:24:36 10° E visible
04 Jul - 05:31:38 10° WSW 05:38:05 55° S 05:49:50 10° E daylight
04 Jul - 07:50:46 10° W 07:59:40 51° SSW 08:15:49 10° SE daylight
04 Jul - 10:11:46 10° W 10:22:41 31° SSW 10:39:01 10° SSE daylight
